User: anonymous   Login
Location: Unspecified
(0.0000°N, 0.0000°E)
Time: 01:59:03
(UTC+00:00)
Language:

TSUBAME - Orbit

View from above orbital plane
View from above orbital plane
View from above satellite
View from above satellite

Ground track
Ground track

The orbit data is extracted from the following two-line orbital elements,

1 40302U 14070E   17147.89160271 +.00000817 +00000-0 +44814-4 0  9996
2 40302 097.3777 220.5193 0039476 190.6322 280.6431 15.16311055141272
Epoch (UTC): 27 May 2017 21:23:54
Eccentricity: 0.0039476
inclination: 97.3777°
perigee height: 490 km
apogee height: 544 km
right ascension of ascending node: 220.5193°
argument of perigee: 190.6322°
revolutions per day: 15.16311055
mean anomaly at epoch: 280.6431°
orbit number at epoch: 14127

The dashed part of the orbit path shows where the satellite is in the earth's shadow,  

DLR